Wisconsin Rapids, WI

7:11 PM CDT on October 22, 2017 (GMT -0500)
Alexander Field South Wood County

Weather History for KISW - August, 2013

Change the Weather History Date:

Monday, August 19, 2013

  Actual Average Record
Temperature  
Mean Temperature 68 °F -  
Max Temperature 84 °F 78 °F 98 °F (1955)
Min Temperature 53 °F 55 °F 37 °F (2004)
Cooling Degree Days 2    
Growing Degree Days 18 (Base 50)    
Moisture  
Dew Point 57 °F    
Average Humidity 75    
Maximum Humidity 100    
Minimum Humidity 39    
Precipitation  
Precipitation 0.00 in - - ()
Sea Level Pressure  
Sea Level Pressure 30.06 in    
Wind  
Wind Speed 3 mph (SW)    
Max Wind Speed 13 mph    
Max Gust Speed 25 mph    
Visibility 7 miles    
Events      
Averages and records for this station are not official NWS values.
T = Trace of Precipitation, MM = Missing Value Source: NWS Daily Summary

Daily Weather History Graph

Daily Weather History Graph

Search for Another Location

Airport or City:

Trip Planner

Search our weather history database for the weather conditions in past years. The results will help you decide how hot, cold, wet, or windy it might be!

Date:

Astronomy

Aug. 19, 2013 Rise Set
Actual Time 6:07 AM CDT 7:57 PM CDT
Civil Twilight 5:36 AM CDT 8:28 PM CDT
Nautical Twilight 4:58 AM CDT 9:06 PM CDT
Astronomical Twilight 4:16 AM CDT 9:47 PM CDT
Moon 6:48 PM CDT (8/19) 4:25 AM CDT (8/19)
Length of Visible Light 14h 52m
Length of Day
13h 50m
Waxing Gibbous, 97% of the Moon is Illuminated
Aug 19
Waxing Gibbous
Aug 20
Full
Aug 28
Last Quarter
Sep 5
New
Sep 12
First Quarter

Hourly Weather History & Observations

Time (CDT) Temp. Heat Index Dew Point Humidity Pressure Visibility Wind Dir Wind Speed Gust Speed Precip Events Conditions
12:54 AM 57.9 °F - 55.9 °F 93% 30.09 in 10.0 mi Calm Calm - N/A   Clear
1:54 AM 57.0 °F - 55.9 °F 96% 30.09 in 8.0 mi Calm Calm - N/A   Clear
2:54 AM 57.0 °F - 55.0 °F 93% 30.09 in 5.0 mi Calm Calm - N/A   Clear
3:54 AM 55.0 °F - 54.0 °F 96% 30.08 in 8.0 mi South 3.5 mph - N/A   Clear
4:54 AM 55.0 °F - 53.1 °F 93% 30.08 in 5.0 mi Calm Calm - N/A   Clear
5:42 AM 55.4 °F - 53.6 °F 94% 30.09 in 1.8 mi Calm Calm - N/A   Clear
5:45 AM 55.4 °F - 53.6 °F 94% 30.09 in 0.8 mi Calm Calm - N/A   Clear
5:54 AM 55.0 °F - 54.0 °F 96% 30.09 in 0.8 mi Calm Calm - N/A   Clear
5:56 AM 55.4 °F - 53.6 °F 94% 30.09 in 1.2 mi Calm Calm - N/A   Clear
6:05 AM 53.6 °F - 53.6 °F 100% 30.09 in 2.0 mi Calm Calm - N/A   Clear
6:14 AM 53.6 °F - 53.6 °F 100% 30.09 in 4.0 mi Calm Calm - N/A   Clear
6:30 AM 53.6 °F - 53.6 °F 100% 30.09 in 2.5 mi Calm Calm - N/A   Clear
6:49 AM 55.4 °F - 53.6 °F 94% 30.09 in 4.0 mi Calm Calm - N/A   Clear
6:54 AM 55.0 °F - 55.0 °F 100% 30.09 in 3.0 mi Calm Calm - N/A   Clear
7:54 AM 63.0 °F - 57.9 °F 84% 30.07 in 10.0 mi SSW 6.9 mph - N/A   Clear
8:54 AM 70.0 °F - 57.9 °F 65% 30.07 in 10.0 mi SW 6.9 mph - N/A   Clear
9:54 AM 75.0 °F - 57.9 °F 55% 30.07 in 10.0 mi SW 9.2 mph - N/A   Clear
10:54 AM 75.9 °F - 57.9 °F 54% 30.08 in 10.0 mi SW 10.4 mph - N/A   Clear
11:54 AM 78.1 °F - 59.0 °F 52% 30.07 in 10.0 mi Variable 6.9 mph - N/A   Clear
12:54 PM 82.0 °F 81.6 °F 55.9 °F 41% 30.04 in 10.0 mi WSW 12.7 mph 20.7 mph N/A   Clear
1:54 PM 82.9 °F 82.1 °F 55.9 °F 39% 30.03 in 10.0 mi SW 12.7 mph 25.3 mph N/A   Clear
2:54 PM 82.0 °F 82.0 °F 57.9 °F 44% 30.03 in 10.0 mi SSW 10.4 mph 17.3 mph N/A   Partly Cloudy
3:54 PM 82.9 °F 83.2 °F 60.1 °F 46% 30.02 in 10.0 mi WSW 10.4 mph - N/A   Scattered Clouds
4:54 PM 82.9 °F 83.2 °F 60.1 °F 46% 30.01 in 10.0 mi West 10.4 mph - N/A   Scattered Clouds
5:54 PM 81.0 °F 81.6 °F 60.1 °F 49% 30.01 in 10.0 mi WSW 8.1 mph - N/A   Partly Cloudy
6:54 PM 79.0 °F - 62.1 °F 56% 30.01 in 10.0 mi SW 8.1 mph - N/A   Clear
7:54 PM 75.9 °F - 62.1 °F 62% 30.01 in 10.0 mi SSW 9.2 mph - N/A   Clear
8:54 PM 72.0 °F - 62.1 °F 71% 30.01 in 10.0 mi SSW 6.9 mph - N/A   Clear
9:54 PM 71.1 °F - 62.1 °F 73% 30.01 in 10.0 mi SSW 6.9 mph - N/A   Clear
10:54 PM 69.1 °F - 62.1 °F 78% 30.01 in 10.0 mi SSW 6.9 mph - N/A   Clear
11:54 PM 69.1 °F - 62.1 °F 78% 30.01 in 10.0 mi SW 5.8 mph - N/A   Clear